HULIANWANG DIGUI 16H

Last updated on Sat Dec 13 2025 00:02:09 GMT+0000 (Coordinated Universal Time)

1 67066U 25295H 25346.21273250 -.00000101 00000+0 24354-4 0 9994 2 67066 50.0029 14.4606 0011490 248.6611 111.3077 14.26429655 45
UTC large
Height (km)
Speed (km/s)
/
Latitude / Longitude
Inclination (degrees)
Orbital Period (minutes)
Azimuth
Elevation
Range (km)
Doppler Factor

Next 0 passes for location: London (51.5072 / 0.1276)

Sorry there are no passes over London.